This is the latest recevied weather packets stored in our database for station/object N4YH-13. If no packets are shown the sender has not sent any weather packets the latest 1 day(s).
| Time | Temp. | Humidity | Pressure | Rain* | Wind** | Luminosity | Snow |
|---|---|---|---|---|---|---|---|
| 1778090044 | 18.89° C | 96% | 1011.8 hPa | 0.25 mm | - | - | - |
| 1778089084 | 19.44° C | 95% | 1012.1 hPa | 0 mm | - | - | - |
| 1778088484 | 19.44° C | 95% | 1011.5 hPa | 0 mm | - | - | - |
| 1778088364 | 19.44° C | 95% | 1011.5 hPa | 0 mm | - | - | - |
| 1778087764 | 19.44° C | 96% | 1011.1 hPa | 0 mm | - | - | - |
| 1778087644 | 19.44° C | 96% | 1011.1 hPa | 0 mm | - | - | - |
| 1778087524 | 19.44° C | 97% | 1011.1 hPa | 0 mm | - | - | - |
| 1778086684 | 18.89° C | 98% | 1011.8 hPa | 0 mm | - | - | - |
| 1778085844 | 18.33° C | 98% | 1011.1 hPa | 0.76 mm | - | - | - |
| 1778085724 | 18.33° C | 98% | 1011 hPa | 1.02 mm | - | - | - |
| 1778085124 | 18.33° C | 98% | 1010.7 hPa | 1.78 mm | - | - | - |
| 1778084764 | 18.33° C | 98% | 1010.9 hPa | 2.03 mm | - | - | - |
| 1778084044 | 18.89° C | 100% | 1011 hPa | 3.05 mm | - | - | - |
| 1778083204 | 17.78° C | 100% | 1011.1 hPa | 4.57 mm | - | - | - |
| 1778083084 | 17.78° C | 100% | 1011.1 hPa | 4.83 mm | - | - | - |
| 1778082484 | 17.22° C | 99% | 1011.2 hPa | 5.08 mm | - | - | - |
| 1778082364 | 17.22° C | 99% | 1011.2 hPa | 5.33 mm | - | - | - |
| 1778081764 | 17.22° C | 99% | 1011.2 hPa | 5.59 mm | - | - | - |
| 1778081644 | 17.22° C | 99% | 1011.2 hPa | 5.84 mm | - | - | - |
| 1778081524 | 16.67° C | 99% | 1011.5 hPa | 5.84 mm | - | - | - |
| 1778080564 | 16.67° C | 99% | 1011 hPa | 6.35 mm | - | - | - |
| 1778079844 | 16.67° C | 99% | 1011 hPa | 6.6 mm | - | - | - |
| 1778079724 | 16.67° C | 99% | 1011.3 hPa | 6.86 mm | - | - | - |
| 1778078884 | 16.67° C | 99% | 1012.2 hPa | 7.11 mm | - | - | - |
| 1778078764 | 16.67° C | 99% | 1012.2 hPa | 6.86 mm | - | - | - |
* Rain latest hour (hover to see other rain measurements)
** Current wind speed in m/s (hover to see current wind gust speed)